Regional Weather Roundup
Issued by NWS

Home | Current Version | Previous Version | Graphics & Text | Print | Product List | Glossary On
Versions: 1 2 3 4 5 6 7 8 9 10 11 12 13 14 15 16 17 18 19 20 21 22 23 24 25 26 27 28 29 30 31 32 33 34 35 36 37 38 39 40 41 42 43 44 45 46 47 48 49 50
000
ASUS43 KIND 022009
RWRIN

WEATHER ROUNDUP FOR INDIANA
NATIONAL WEATHER SERVICE INDIANAPOLIS IN
300 PM EST MON MAR 02 2015

NOTE: "FAIR" INDICATES FEW OR NO CLOUDS BELOW 12,000 FEET WITH NO
SIGNIFICANT WEATHER AND/OR OBSTRUCTIONS TO VISIBILITY.

* - STATION DOES NOT REPORT WEATHER SUCH AS PRECIPITATION OR FOG.

+ - STATION NOT QUALITY CONTROLLED BY THE NATIONAL WEATHER SERVICE.
    USE DATA WITH CAUTION...ESPECIALLY DEWPOINT AND RELATIVE
    HUMIDITY OBSERVATIONS.

INZ001>003-010>013-019-020-022100-
NORTHWEST INDIANA

CITY           SKY/WX    TMP DP  RH WIND       PRES   REMARKS
GARY /AIRPORT/ PTSUNNY   30  14  51 NE5       30.48F WCI  25
KNOX *+          N/A     28  -2  26 CALM      30.46F
LA PORTE +     SUNNY     31  17  56 SW6       30.47F WCI  25
MICHIGAN CITY+ SUNNY     30  10  43 W5        30.47F WCI  25
MONTICELLO +   FAIR      23  16  75 NW3       30.47F
RENSSELAER +   SUNNY     28  19  69 CALM      30.47F
VALPARAISO     SUNNY     26  13  57 S7        30.47F WCI  18

$$

LMZ046-743>745-022100-
SOUTHERN LAKE MICHIGAN

STATION/POSITION TIME  TEMP WIND        PRES
                       AIR  DIR/SP/G
                 (UTC) (F)  (DEG/KT/KT) (MB)
MICHIGAN CITY    2000   32  310/  2/  4   N/A

$$

INZ004-005-014>016-021>024-022100-
NORTH CENTRAL INDIANA

CITY           SKY/WX    TMP DP  RH WIND       PRES   REMARKS
ELKHART        SUNNY     28  12  50 W6        30.46F WCI  22
GOSHEN         SUNNY     28  16  60 SW7       30.45F WCI  21
LOGANSPORT +   SUNNY     27  14  59 CALM      30.48F
PERU/GRISSOM   MOSUNNY   25  15  66 W2        30.45F
ROCHESTER +    SUNNY     32  18  55 SW6       30.47F WCI  26
SOUTH BEND     SUNNY     30  15  53 N6        30.46F WCI  24
WARSAW +       SUNNY     30  16  55 NW5       30.46F WCI  25

$$

INZ006>009-017-018-025>027-022100-
NORTHEAST INDIANA

CITY           SKY/WX    TMP DP  RH WIND       PRES   REMARKS
ANGOLA *+      SUNNY     28  16  59 SW9       30.44S WCI  20
AUBURN +       SUNNY     32  14  47 SW5       30.46F WCI  27
FORT WAYNE     MOSUNNY   28  14  55 W9        30.47F WCI  19
HUNTINGTON +   SUNNY     28   7  40 W3        30.46F

$$

INZ028-029-035-036-043>045-051>053-022100-
WEST CENTRAL INDIANA

CITY           SKY/WX    TMP DP  RH WIND       PRES   REMARKS
CRAWFORDSVL +  MOSUNNY   28  11  47 SE3       30.46F
GREENCASTLE +  PTSUNNY   30  12  47 CALM      30.46F
LAFAYETTE      MOSUNNY   27  16  63 SW3       30.47F
TERRE HAUTE    MOSUNNY   33  16  49 CALM      30.46F

$$

INZ030>032-037>040-046>048-054>057-064-065-022100-
CENTRAL INDIANA

CITY           SKY/WX    TMP DP  RH WIND       PRES   REMARKS
ANDERSON       SUNNY     30  10  43 CALM      30.46F
CP ATTERBURY + MOSUNNY   32  16  51 E5        30.47F WCI  27
COLUMBUS       SUNNY     28  10  47 NE5       30.47  WCI  23
FRANKFORT +    MOSUNNY   27  17  64 CALM      30.48F
GREENWOOD *+   MOSUNNY   28  10  47 SE6       30.46F WCI  22
INDIANAPOLIS   PTSUNNY   32  14  47 CALM      30.44F
-EAGLE CREEK   PTSUNNY   32  12  43 N5        30.44F WCI  27
KOKOMO *+      MOSUNNY   25  16  68 E3        30.47F
MARION +       MOSUNNY   23  13  67 CALM      30.47F
MT COMFORT *+  MOSUNNY   30   5  34 E5        30.46F WCI  25
SHELBYVILLE    MOSUNNY   30  14  51 E5        30.46F WCI  25
ZIONSVILLE +   MOSUNNY   29  13  50 N3        30.46F

$$

INZ033-034-041-042-049-050-058-059-022100-
EAST CENTRAL INDIANA

CITY           SKY/WX    TMP DP  RH WIND       PRES   REMARKS
MUNCIE         MOSUNNY   28  14  55 NE5       30.46F WCI  23

$$

INZ060-061-067>069-081>083-085>088-022100-
SOUTHWEST INDIANA

CITY           SKY/WX    TMP DP  RH WIND       PRES   REMARKS
EVANSVILLE     MOSUNNY   37  16  42 VRB7      30.46F
HUNTINGBURG *+ SUNNY     36  18  48 NE6       30.45F
WASHINGTON +   SUNNY     31  14  49 N5        30.46F WCI  26

$$

INZ062-063-066-070>080-084-089>092-022100-
SOUTH CENTRAL AND SOUTHEAST INDIANA

CITY           SKY/WX    TMP DP  RH WIND       PRES   REMARKS
BLOOMINGTON    MOSUNNY   35  12  38 CALM      30.44F
NORTH VERNON + MOSUNNY   32  14  47 N8        30.46F WCI  25
SEYMOUR +      MOSUNNY   34  18  51 N6        30.46F WCI  29

$$




USA.gov is the U.S. government's official web portal to all federal, state and local government web resources and services.